Time,TemperatureF,DewpointF,PressureIn,WindDirection,WindDirectionDegrees,WindSpeedMPH,WindSpeedGustMPH,Humidity,HourlyPrecipIn,Conditions,Clouds,dailyrainin,SoftwareType,DateUTC
2013-04-03 00:02:00,36.3,21.2,28.86,SE,135,3.1,6.9,54,0.00,,,0.00,WUHU216HW,2013-04-03 05:02:00,
2013-04-03 00:07:00,36.3,21.2,28.86,SE,135,2.9,8.0,54,0.00,,,0.00,WUHU216HW,2013-04-03 05:07:00,
2013-04-03 00:13:00,36.1,21.0,28.87,ESE,113,2.6,8.9,54,0.00,,,0.00,WUHU216HW,2013-04-03 05:13:00,
2013-04-03 00:18:00,35.9,20.9,28.86,ESE,113,0.0,8.9,54,0.00,,,0.00,WUHU216HW,2013-04-03 05:18:00,
2013-04-03 00:23:00,35.7,20.7,28.86,SE,135,4.0,6.4,54,0.00,,,0.00,WUHU216HW,2013-04-03 05:23:00,
2013-04-03 00:28:00,35.4,20.8,28.87,SSE,158,0.0,6.9,55,0.00,,,0.00,WUHU216HW,2013-04-03 05:28:00,
2013-04-03 00:33:00,35.4,20.8,28.86,SSE,158,4.9,6.9,55,0.00,,,0.00,WUHU216HW,2013-04-03 05:33:00,
2013-04-03 00:38:00,35.2,20.6,28.86,SE,135,6.2,6.2,55,0.00,,,0.00,WUHU216HW,2013-04-03 05:38:00,
2013-04-03 00:43:00,35.0,20.4,28.87,SE,135,3.5,6.2,55,0.00,,,0.00,WUHU216HW,2013-04-03 05:43:00,
2013-04-03 00:48:00,34.8,20.3,28.87,SE,135,0.0,3.5,55,0.00,,,0.00,WUHU216HW,2013-04-03 05:48:00,
2013-04-03 00:53:00,34.7,20.1,28.87,ESE,113,0.0,3.5,55,0.00,,,0.00,WUHU216HW,2013-04-03 05:53:00,
2013-04-03 00:58:00,34.3,20.1,28.87,ESE,113,1.5,1.5,56,0.00,,,0.00,WUHU216HW,2013-04-03 05:58:00,
2013-04-03 01:03:00,34.3,20.1,28.87,SSE,158,6.2,6.4,56,0.00,,,0.00,WUHU216HW,2013-04-03 06:03:00,
2013-04-03 01:08:00,34.3,20.1,28.87,SE,135,0.0,6.4,56,0.00,,,0.00,WUHU216HW,2013-04-03 06:08:00,
2013-04-03 01:13:00,34.1,20.4,28.87,ESE,113,1.7,4.9,57,0.00,,,0.00,WUHU216HW,2013-04-03 06:13:00,
2013-04-03 01:18:00,33.8,20.2,28.87,SE,135,4.4,6.7,57,0.00,,,0.00,WUHU216HW,2013-04-03 06:18:00,
2013-04-03 01:23:00,33.6,19.9,28.88,SE,135,0.0,7.6,57,0.00,,,0.00,WUHU216HW,2013-04-03 06:23:00,
2013-04-03 01:29:00,33.6,19.9,28.88,ESE,113,3.3,7.6,57,0.00,,,0.00,WUHU216HW,2013-04-03 06:29:00,
2013-04-03 01:34:00,33.4,19.9,28.88,ESE,113,5.8,6.9,58,0.00,,,0.00,WUHU216HW,2013-04-03 06:34:00,
2013-04-03 01:39:00,33.4,20.1,28.88,SSE,158,4.4,6.9,58,0.00,,,0.00,WUHU216HW,2013-04-03 06:39:00,
2013-04-03 01:44:00,33.0,19.8,28.88,SE,135,0.0,5.8,58,0.00,,,0.00,WUHU216HW,2013-04-03 06:44:00,
2013-04-03 01:49:00,33.0,19.8,28.88,ESE,113,8.0,8.0,58,0.00,,,0.00,WUHU216HW,2013-04-03 06:49:00,
2013-04-03 01:54:00,32.9,20.1,28.88,ESE,113,0.0,8.0,59,0.00,,,0.00,WUHU216HW,2013-04-03 06:54:00,
2013-04-03 01:59:00,32.7,19.5,28.89,SE,135,3.8,8.0,58,0.00,,,0.00,WUHU216HW,2013-04-03 06:59:00,
2013-04-03 02:04:00,32.5,19.3,28.88,SE,135,0.8,3.8,58,0.00,,,0.00,WUHU216HW,2013-04-03 07:04:00,
2013-04-03 02:09:00,32.3,19.6,28.88,SE,135,6.9,6.9,59,0.00,,,0.00,WUHU216HW,2013-04-03 07:09:00,
2013-04-03 02:14:00,32.3,19.6,28.88,SE,135,0.0,6.9,59,0.00,,,0.00,WUHU216HW,2013-04-03 07:14:00,
2013-04-03 02:19:00,32.1,19.4,28.88,ESE,113,0.0,6.9,59,0.00,,,0.00,WUHU216HW,2013-04-03 07:19:00,
2013-04-03 02:24:00,31.8,19.5,28.88,East,90,0.0,3.5,60,0.00,,,0.00,WUHU216HW,2013-04-03 07:24:00,
2013-04-03 02:29:00,31.6,19.4,28.89,SE,135,0.0,3.1,60,0.00,,,0.00,WUHU216HW,2013-04-03 07:29:00,
2013-04-03 02:34:00,31.2,19.0,28.89,ESE,113,0.0,3.1,60,0.00,,,0.00,WUHU216HW,2013-04-03 07:34:00,
2013-04-03 02:40:00,31.2,19.4,28.89,SE,135,7.3,7.3,61,0.00,,,0.00,WUHU216HW,2013-04-03 07:40:00,
2013-04-03 02:45:00,31.2,19.4,28.89,SE,135,3.8,7.3,61,0.00,,,0.00,WUHU216HW,2013-04-03 07:45:00,
2013-04-03 02:50:00,31.2,19.4,28.89,ESE,113,6.2,6.2,61,0.00,,,0.00,WUHU216HW,2013-04-03 07:50:00,
2013-04-03 02:55:00,31.1,19.2,28.89,ESE,113,1.7,6.2,61,0.00,,,0.00,WUHU216HW,2013-04-03 07:55:00,
2013-04-03 03:00:00,31.1,19.2,28.89,SE,135,4.6,6.4,61,0.00,,,0.00,WUHU216HW,2013-04-03 08:00:00,
2013-04-03 03:05:00,31.1,19.2,28.89,SE,135,0.0,6.9,61,0.00,,,0.00,WUHU216HW,2013-04-03 08:05:00,
2013-04-03 03:10:00,30.9,19.0,28.89,SE,135,0.8,6.9,61,0.00,,,0.00,WUHU216HW,2013-04-03 08:10:00,
2013-04-03 03:15:00,30.9,19.0,28.89,ESE,113,0.0,7.1,61,0.00,,,0.00,WUHU216HW,2013-04-03 08:15:00,
2013-04-03 03:20:00,30.7,19.2,28.89,SE,135,0.0,7.1,62,0.00,,,0.00,WUHU216HW,2013-04-03 08:20:00,
2013-04-03 03:25:00,30.7,19.2,28.89,SE,135,0.0,3.1,62,0.00,,,0.00,WUHU216HW,2013-04-03 08:25:00,
2013-04-03 03:30:00,30.5,19.0,28.89,SE,135,4.2,4.2,62,0.00,,,0.00,WUHU216HW,2013-04-03 08:30:00,
2013-04-03 03:35:00,30.3,18.8,28.89,SE,135,0.0,4.2,62,0.00,,,0.00,WUHU216HW,2013-04-03 08:35:00,
2013-04-03 03:40:00,30.3,18.8,28.89,SE,135,0.0,4.2,62,0.00,,,0.00,WUHU216HW,2013-04-03 08:40:00,
2013-04-03 03:45:00,30.2,19.0,28.89,SE,135,0.0,5.1,63,0.00,,,0.00,WUHU216HW,2013-04-03 08:45:00,
2013-04-03 03:50:00,30.0,18.8,28.89,SE,135,0.0,5.1,63,0.00,,,0.00,WUHU216HW,2013-04-03 08:50:00,
2013-04-03 03:55:00,30.0,18.8,28.89,SE,135,0.0,0.0,63,0.00,,,0.00,WUHU216HW,2013-04-03 08:55:00,
2013-04-03 04:00:00,30.0,18.8,28.89,SE,135,5.5,5.5,63,0.00,,,0.00,WUHU216HW,2013-04-03 09:00:00,
2013-04-03 04:05:00,29.8,18.7,28.89,SE,135,0.0,5.5,63,0.00,,,0.00,WUHU216HW,2013-04-03 09:05:00,
2013-04-03 04:10:00,29.8,18.7,28.89,ESE,113,0.0,4.9,63,0.00,,,0.00,WUHU216HW,2013-04-03 09:10:00,
2013-04-03 04:16:00,30.0,19.2,28.89,SE,135,7.1,7.1,64,0.00,,,0.00,WUHU216HW,2013-04-03 09:16:00,
2013-04-03 04:21:00,29.8,19.2,28.89,SE,135,2.2,7.1,64,0.00,,,0.00,WUHU216HW,2013-04-03 09:21:00,
2013-04-03 04:26:00,29.8,19.0,28.89,SE,135,0.0,7.1,64,0.00,,,0.00,WUHU216HW,2013-04-03 09:26:00,
2013-04-03 04:31:00,29.8,19.0,28.89,SSE,158,0.0,6.7,64,0.00,,,0.00,WUHU216HW,2013-04-03 09:31:00,
2013-04-03 04:36:00,29.8,19.0,28.89,SE,135,6.7,6.7,64,0.00,,,0.00,WUHU216HW,2013-04-03 09:36:00,
2013-04-03 04:41:00,29.8,19.0,28.89,SE,135,3.3,6.7,64,0.00,,,0.00,WUHU216HW,2013-04-03 09:41:00,
2013-04-03 04:46:00,29.8,19.0,28.89,ESE,113,4.6,6.7,64,0.00,,,0.00,WUHU216HW,2013-04-03 09:46:00,
2013-04-03 04:51:00,29.8,19.0,28.89,ESE,113,0.0,7.3,64,0.00,,,0.00,WUHU216HW,2013-04-03 09:51:00,
2013-04-03 04:56:00,29.8,19.0,28.89,SE,135,2.2,7.8,64,0.00,,,0.00,WUHU216HW,2013-04-03 09:56:00,
2013-04-03 05:01:00,29.8,19.0,28.89,SE,135,2.0,7.8,64,0.00,,,0.00,WUHU216HW,2013-04-03 10:01:00,
2013-04-03 05:06:00,29.6,18.9,28.89,SE,135,4.0,7.1,64,0.00,,,0.00,WUHU216HW,2013-04-03 10:06:00,
2013-04-03 05:11:00,29.4,18.7,28.90,SSE,158,6.7,7.1,64,0.00,,,0.00,WUHU216HW,2013-04-03 10:11:00,
2013-04-03 05:17:00,29.4,19.1,28.89,SE,135,7.8,7.8,65,0.00,,,0.00,WUHU216HW,2013-04-03 10:17:00,
2013-04-03 05:22:00,29.4,19.1,28.89,ESE,113,0.0,7.8,65,0.00,,,0.00,WUHU216HW,2013-04-03 10:22:00,
2013-04-03 05:27:00,29.4,19.1,28.89,SSE,158,3.8,7.8,65,0.00,,,0.00,WUHU216HW,2013-04-03 10:27:00,
2013-04-03 05:32:00,29.3,18.9,28.89,SSE,158,8.7,8.7,65,0.00,,,0.00,WUHU216HW,2013-04-03 10:32:00,
2013-04-03 05:37:00,29.3,18.9,28.89,SE,135,0.0,8.7,65,0.00,,,0.00,WUHU216HW,2013-04-03 10:37:00,
2013-04-03 05:42:00,29.1,18.7,28.89,ESE,113,5.5,8.7,65,0.00,,,0.00,WUHU216HW,2013-04-03 10:42:00,
2013-04-03 05:47:00,29.1,18.7,28.89,SE,135,6.4,7.3,65,0.00,,,0.00,WUHU216HW,2013-04-03 10:47:00,
2013-04-03 05:52:00,29.1,19.1,28.89,SSE,158,0.0,6.4,66,0.00,,,0.00,WUHU216HW,2013-04-03 10:52:00,
2013-04-03 05:57:00,29.1,18.7,28.90,SE,135,6.0,6.4,65,0.00,,,0.00,WUHU216HW,2013-04-03 10:57:00,
2013-04-03 06:02:00,28.9,18.6,28.90,ESE,113,6.0,6.9,65,0.00,,,0.00,WUHU216HW,2013-04-03 11:02:00,
2013-04-03 06:07:00,28.9,18.6,28.90,SE,135,6.0,7.1,65,0.00,,,0.00,WUHU216HW,2013-04-03 11:07:00,
2013-04-03 06:12:00,28.9,18.9,28.90,SE,135,6.4,7.3,66,0.00,,,0.00,WUHU216HW,2013-04-03 11:12:00,
2013-04-03 06:17:00,28.9,18.9,28.90,SE,135,5.1,7.3,66,0.00,,,0.00,WUHU216HW,2013-04-03 11:17:00,
2013-04-03 06:22:00,28.9,18.9,28.90,SSE,158,4.0,7.6,66,0.00,,,0.00,WUHU216HW,2013-04-03 11:22:00,
2013-04-03 06:28:00,28.9,18.9,28.91,SSE,158,6.9,7.6,66,0.00,,,0.00,WUHU216HW,2013-04-03 11:28:00,
2013-04-03 06:33:00,28.9,18.9,28.91,SSE,158,0.0,6.9,66,0.00,,,0.00,WUHU216HW,2013-04-03 11:33:00,
2013-04-03 06:38:00,28.9,18.9,28.91,SE,135,6.2,8.0,66,0.00,,,0.00,WUHU216HW,2013-04-03 11:38:00,
2013-04-03 06:43:00,28.9,18.9,28.91,SSE,158,6.2,8.0,66,0.00,,,0.00,WUHU216HW,2013-04-03 11:43:00,
2013-04-03 06:48:00,28.9,18.9,28.91,SE,135,7.3,7.3,66,0.00,,,0.00,WUHU216HW,2013-04-03 11:48:00,
2013-04-03 06:53:00,28.9,18.9,28.91,SSE,158,3.1,7.3,66,0.00,,,0.00,WUHU216HW,2013-04-03 11:53:00,
2013-04-03 06:58:00,28.7,18.8,28.92,SSE,158,0.0,3.1,66,0.00,,,0.00,WUHU216HW,2013-04-03 11:58:00,
2013-04-03 07:03:00,28.7,18.8,28.92,SSE,158,0.0,0.0,66,0.00,,,0.00,WUHU216HW,2013-04-03 12:03:00,
2013-04-03 07:08:00,28.5,18.6,28.92,SSE,158,0.0,1.3,66,0.00,,,0.00,WUHU216HW,2013-04-03 12:08:00,
2013-04-03 07:13:00,28.5,18.6,28.92,SSE,158,0.0,5.3,66,0.00,,,0.00,WUHU216HW,2013-04-03 12:13:00,
2013-04-03 07:18:00,28.4,18.5,28.92,SSE,158,0.0,5.3,66,0.00,,,0.00,WUHU216HW,2013-04-03 12:18:00,
2013-04-03 07:23:00,28.5,18.6,28.92,SSE,158,3.5,3.5,66,0.00,,,0.00,WUHU216HW,2013-04-03 12:23:00,
2013-04-03 07:28:00,28.4,18.5,28.92,SSE,158,2.9,4.2,66,0.00,,,0.00,WUHU216HW,2013-04-03 12:28:00,
2013-04-03 07:33:00,28.5,19.0,28.92,SSE,158,3.5,4.2,67,0.00,,,0.00,WUHU216HW,2013-04-03 12:33:00,
2013-04-03 07:38:00,28.5,19.0,28.92,SSE,158,0.0,5.5,67,0.00,,,0.00,WUHU216HW,2013-04-03 12:38:00,
2013-04-03 07:44:00,28.7,19.1,28.92,SE,135,4.4,5.5,67,0.00,,,0.00,WUHU216HW,2013-04-03 12:44:00,
2013-04-03 07:49:00,28.9,19.3,28.92,SE,135,7.1,7.1,67,0.00,,,0.00,WUHU216HW,2013-04-03 12:49:00,
2013-04-03 07:54:00,29.1,19.5,28.91,SE,135,7.8,7.8,67,0.00,,,0.00,WUHU216HW,2013-04-03 12:54:00,
2013-04-03 07:59:00,29.3,19.6,28.91,SE,135,6.4,7.8,67,0.00,,,0.00,WUHU216HW,2013-04-03 12:59:00,
2013-04-03 08:04:00,29.6,19.8,28.91,SSE,158,6.9,8.0,67,0.00,,,0.00,WUHU216HW,2013-04-03 13:04:00,
2013-04-03 08:09:00,30.0,20.3,28.91,SE,135,5.3,8.0,67,0.00,,,0.00,WUHU216HW,2013-04-03 13:09:00,
2013-04-03 08:14:00,30.2,20.1,28.91,SSE,158,7.3,7.3,66,0.00,,,0.00,WUHU216HW,2013-04-03 13:14:00,
2013-04-03 08:19:00,30.5,20.4,28.91,SE,135,5.1,10.5,66,0.00,,,0.00,WUHU216HW,2013-04-03 13:19:00,
2013-04-03 08:24:00,30.7,20.6,28.91,SSE,158,6.9,10.5,66,0.00,,,0.00,WUHU216HW,2013-04-03 13:24:00,
2013-04-03 08:29:00,31.1,21.0,28.92,SSE,158,6.7,9.8,66,0.00,,,0.00,WUHU216HW,2013-04-03 13:29:00,
2013-04-03 08:34:00,31.2,21.3,28.92,SSE,158,0.8,9.8,66,0.00,,,0.00,WUHU216HW,2013-04-03 13:34:00,
2013-04-03 08:39:00,31.6,21.5,28.92,SSE,158,6.9,6.9,66,0.00,,,0.00,WUHU216HW,2013-04-03 13:39:00,
2013-04-03 08:44:00,31.8,21.3,28.92,SSE,158,7.1,7.1,65,0.00,,,0.00,WUHU216HW,2013-04-03 13:44:00,
2013-04-03 08:49:00,32.3,21.8,28.92,SSE,158,7.3,7.8,65,0.00,,,0.00,WUHU216HW,2013-04-03 13:49:00,
2013-04-03 08:54:00,32.7,22.2,28.92,South,180,6.9,7.8,65,0.00,,,0.00,WUHU216HW,2013-04-03 13:54:00,
2013-04-03 08:59:00,33.0,22.5,28.92,SSE,158,12.3,12.3,65,0.00,,,0.00,WUHU216HW,2013-04-03 13:59:00,
2013-04-03 09:04:00,33.6,22.6,28.91,South,180,12.7,12.7,64,0.00,,,0.00,WUHU216HW,2013-04-03 14:04:00,
2013-04-03 09:09:00,33.9,23.0,28.91,South,180,10.9,13.8,64,0.00,,,0.00,WUHU216HW,2013-04-03 14:09:00,
2013-04-03 09:14:00,34.3,23.0,28.92,South,180,10.2,13.8,63,0.00,,,0.00,WUHU216HW,2013-04-03 14:14:00,
2013-04-03 09:20:00,34.5,23.1,28.92,South,180,11.4,11.6,63,0.00,,,0.00,WUHU216HW,2013-04-03 14:20:00,
2013-04-03 09:25:00,34.8,23.5,28.92,South,180,16.7,16.7,63,0.00,,,0.00,WUHU216HW,2013-04-03 14:25:00,
2013-04-03 09:30:00,35.2,23.5,28.92,South,180,11.8,16.7,62,0.00,,,0.00,WUHU216HW,2013-04-03 14:30:00,
2013-04-03 09:35:00,35.4,23.7,28.92,South,180,11.4,11.8,62,0.00,,,0.00,WUHU216HW,2013-04-03 14:35:00,
2013-04-03 09:40:00,35.7,24.0,28.92,South,180,15.4,15.6,62,0.00,,,0.00,WUHU216HW,2013-04-03 14:40:00,
2013-04-03 09:45:00,36.1,24.0,28.93,South,180,7.3,15.6,61,0.00,,,0.00,WUHU216HW,2013-04-03 14:45:00,
2013-04-03 09:50:00,36.3,24.1,28.93,South,180,15.6,15.6,61,0.00,,,0.00,WUHU216HW,2013-04-03 14:50:00,
2013-04-03 09:55:00,37.0,24.5,28.93,South,180,9.6,15.6,61,0.00,,,0.00,WUHU216HW,2013-04-03 14:55:00,
2013-04-03 10:00:00,37.4,24.8,28.93,SSW,203,10.2,13.6,60,0.00,,,0.00,WUHU216HW,2013-04-03 15:00:00,
2013-04-03 10:05:00,37.7,24.6,28.93,South,180,16.7,17.4,59,0.00,,,0.00,WUHU216HW,2013-04-03 15:05:00,
2013-04-03 10:10:00,38.1,25.0,28.93,South,180,7.8,17.4,59,0.00,,,0.00,WUHU216HW,2013-04-03 15:10:00,
2013-04-03 10:15:00,38.4,24.9,28.93,South,180,16.3,16.3,58,0.00,,,0.00,WUHU216HW,2013-04-03 15:15:00,
2013-04-03 10:20:00,38.8,24.8,28.93,South,180,7.6,16.3,57,0.00,,,0.00,WUHU216HW,2013-04-03 15:20:00,
2013-04-03 10:25:00,39.0,24.9,28.93,South,180,12.9,16.3,57,0.00,,,0.00,WUHU216HW,2013-04-03 15:25:00,
2013-04-03 10:30:00,39.5,25.4,28.93,SSW,203,17.8,17.8,57,0.00,,,0.00,WUHU216HW,2013-04-03 15:30:00,
2013-04-03 10:35:00,40.1,25.3,28.93,South,180,9.1,17.8,56,0.00,,,0.00,WUHU216HW,2013-04-03 15:35:00,
2013-04-03 10:40:00,40.6,26.0,28.93,South,180,11.4,12.9,56,0.00,,,0.00,WUHU216HW,2013-04-03 15:40:00,
2013-04-03 10:45:00,40.8,26.2,28.93,South,180,10.7,14.0,56,0.00,,,0.00,WUHU216HW,2013-04-03 15:45:00,
2013-04-03 10:50:00,41.5,26.7,28.93,South,180,11.4,15.2,56,0.00,,,0.00,WUHU216HW,2013-04-03 15:50:00,
2013-04-03 10:56:00,42.0,26.9,28.93,South,180,10.2,15.2,55,0.00,,,0.00,WUHU216HW,2013-04-03 15:56:00,
2013-04-03 11:01:00,42.6,27.5,28.93,South,180,6.9,12.7,55,0.00,,,0.00,WUHU216HW,2013-04-03 16:01:00,
2013-04-03 11:06:00,43.1,27.1,28.93,SSW,203,12.5,15.2,53,0.00,,,0.00,WUHU216HW,2013-04-03 16:06:00,
2013-04-03 11:11:00,43.5,27.0,28.93,South,180,19.4,19.4,52,0.00,,,0.00,WUHU216HW,2013-04-03 16:11:00,
2013-04-03 11:16:00,43.7,27.2,28.93,SSW,203,12.3,19.4,52,0.00,,,0.00,WUHU216HW,2013-04-03 16:16:00,
2013-04-03 11:22:00,44.2,27.6,28.93,South,180,21.2,21.2,52,0.00,,,0.00,WUHU216HW,2013-04-03 16:22:00,
2013-04-03 11:27:00,44.4,27.8,28.93,SSW,203,14.0,21.2,52,0.00,,,0.00,WUHU216HW,2013-04-03 16:27:00,
2013-04-03 11:32:00,44.9,27.9,28.93,South,180,17.4,17.4,51,0.00,,,0.00,WUHU216HW,2013-04-03 16:32:00,
2013-04-03 11:37:00,44.9,27.4,28.93,SSW,203,17.6,17.6,50,0.00,,,0.00,WUHU216HW,2013-04-03 16:37:00,
2013-04-03 11:42:00,45.1,27.6,28.93,South,180,13.8,17.6,50,0.00,,,0.00,WUHU216HW,2013-04-03 16:42:00,
2013-04-03 11:47:00,45.3,27.2,28.92,South,180,16.1,17.6,49,0.00,,,0.00,WUHU216HW,2013-04-03 16:47:00,
2013-04-03 11:52:00,45.6,27.5,28.92,SSE,158,7.8,16.1,49,0.00,,,0.00,WUHU216HW,2013-04-03 16:52:00,
2013-04-03 11:57:00,46.2,28.0,28.92,South,180,15.8,15.8,49,0.00,,,0.00,WUHU216HW,2013-04-03 16:57:00,
2013-04-03 12:02:00,46.7,28.5,28.92,SSE,158,10.7,15.8,49,0.00,,,0.00,WUHU216HW,2013-04-03 17:02:00,
2013-04-03 12:07:00,47.3,28.4,28.91,SSW,203,7.1,15.8,48,0.00,,,0.00,WUHU216HW,2013-04-03 17:07:00,
2013-04-03 12:12:00,47.4,28.1,28.92,SSW,203,10.9,14.3,47,0.00,,,0.00,WUHU216HW,2013-04-03 17:12:00,
2013-04-03 12:18:00,47.8,28.4,28.92,SSW,203,10.2,13.1,47,0.00,,,0.00,WUHU216HW,2013-04-03 17:18:00,
2013-04-03 12:23:00,48.0,28.5,28.91,SW,225,14.7,14.7,47,0.00,,,0.00,WUHU216HW,2013-04-03 17:23:00,
2013-04-03 12:28:00,48.0,28.5,28.91,South,180,16.5,16.5,47,0.00,,,0.00,WUHU216HW,2013-04-03 17:28:00,
2013-04-03 12:33:00,48.3,28.9,28.91,SSW,203,11.8,16.5,47,0.00,,,0.00,WUHU216HW,2013-04-03 17:33:00,
2013-04-03 12:38:00,48.9,29.4,28.91,SSW,203,9.8,16.5,47,0.00,,,0.00,WUHU216HW,2013-04-03 17:38:00,
2013-04-03 12:43:00,49.1,29.6,28.91,South,180,7.8,13.4,47,0.00,,,0.00,WUHU216HW,2013-04-03 17:43:00,
2013-04-03 12:48:00,49.6,30.1,28.90,South,180,10.9,13.4,47,0.00,,,0.00,WUHU216HW,2013-04-03 17:48:00,
2013-04-03 12:53:00,50.1,30.1,28.90,South,180,7.3,10.9,46,0.00,,,0.00,WUHU216HW,2013-04-03 17:53:00,
2013-04-03 12:58:00,50.3,30.2,28.90,SSW,203,9.1,14.7,46,0.00,,,0.00,WUHU216HW,2013-04-03 17:58:00,
2013-04-03 13:04:00,50.3,29.7,28.90,SW,225,11.4,14.7,45,0.00,,,0.00,WUHU216HW,2013-04-03 18:04:00,
2013-04-03 13:09:00,50.3,29.7,28.89,SSW,203,10.9,12.7,45,0.00,,,0.00,WUHU216HW,2013-04-03 18:09:00,
2013-04-03 13:14:00,50.7,30.0,28.89,SSW,203,6.0,12.5,45,0.00,,,0.00,WUHU216HW,2013-04-03 18:14:00,
2013-04-03 13:19:00,51.0,29.8,28.89,SSW,203,17.4,17.4,44,0.00,,,0.00,WUHU216HW,2013-04-03 18:19:00,
2013-04-03 13:24:00,51.2,29.9,28.88,SSW,203,6.4,17.4,44,0.00,,,0.00,WUHU216HW,2013-04-03 18:24:00,
2013-04-03 13:29:00,51.4,30.1,28.88,SW,225,8.0,17.4,44,0.00,,,0.00,WUHU216HW,2013-04-03 18:29:00,
2013-04-03 13:34:00,51.6,29.7,28.88,SSW,203,10.2,15.8,43,0.00,,,0.00,WUHU216HW,2013-04-03 18:34:00,
2013-04-03 13:39:00,51.9,30.0,28.88,SW,225,8.5,15.8,43,0.00,,,0.00,WUHU216HW,2013-04-03 18:39:00,
2013-04-03 13:44:00,52.3,29.8,28.88,SW,225,4.4,11.8,42,0.00,,,0.00,WUHU216HW,2013-04-03 18:44:00,
2013-04-03 13:49:00,52.8,30.8,28.88,SW,225,10.0,15.6,43,0.00,,,0.00,WUHU216HW,2013-04-03 18:49:00,
2013-04-03 13:54:00,52.8,29.7,28.87,WSW,248,8.5,15.6,41,0.00,,,0.00,WUHU216HW,2013-04-03 18:54:00,
2013-04-03 13:59:00,53.0,30.4,28.87,South,180,1.5,8.5,42,0.00,,,0.00,WUHU216HW,2013-04-03 18:59:00,
2013-04-03 14:04:00,53.4,30.7,28.87,SW,225,11.8,11.8,42,0.00,,,0.00,WUHU216HW,2013-04-03 19:04:00,
2013-04-03 14:10:00,53.4,30.2,28.87,SSW,203,6.7,11.8,41,0.00,,,0.00,WUHU216HW,2013-04-03 19:10:00,
2013-04-03 14:15:00,53.7,30.5,28.86,SW,225,7.3,13.6,41,0.00,,,0.00,WUHU216HW,2013-04-03 19:15:00,
2013-04-03 14:20:00,54.1,30.8,28.86,SSW,203,7.8,13.6,41,0.00,,,0.00,WUHU216HW,2013-04-03 19:20:00,
2013-04-03 14:25:00,54.3,29.7,28.86,WSW,248,6.0,12.7,39,0.00,,,0.00,WUHU216HW,2013-04-03 19:25:00,
2013-04-03 14:30:00,54.1,30.3,28.86,SW,225,7.6,12.7,40,0.00,,,0.00,WUHU216HW,2013-04-03 19:30:00,
2013-04-03 14:35:00,54.5,30.6,28.86,SSW,203,14.7,14.7,40,0.00,,,0.00,WUHU216HW,2013-04-03 19:35:00,
2013-04-03 14:40:00,55.0,30.9,28.86,SW,225,8.9,14.7,40,0.00,,,0.00,WUHU216HW,2013-04-03 19:40:00,
2013-04-03 14:45:00,54.8,30.2,28.86,SW,225,0.0,8.9,39,0.00,,,0.00,WUHU216HW,2013-04-03 19:45:00,
2013-04-03 14:50:00,54.5,30.6,28.85,SW,225,9.3,9.3,40,0.00,,,0.00,WUHU216HW,2013-04-03 19:50:00,
2013-04-03 14:55:00,55.0,31.1,28.85,SSW,203,8.9,12.0,40,0.00,,,0.00,WUHU216HW,2013-04-03 19:55:00,
2013-04-03 15:00:00,55.4,31.4,28.85,South,180,6.2,12.0,40,0.00,,,0.00,WUHU216HW,2013-04-03 20:00:00,
2013-04-03 15:05:00,56.1,31.4,28.85,SSW,203,7.6,14.0,39,0.00,,,0.00,WUHU216HW,2013-04-03 20:05:00,
2013-04-03 15:10:00,56.1,31.4,28.85,SSW,203,8.2,14.0,39,0.00,,,0.00,WUHU216HW,2013-04-03 20:10:00,
2013-04-03 15:16:00,56.3,30.8,28.85,SW,225,11.6,11.6,38,0.00,,,0.00,WUHU216HW,2013-04-03 20:16:00,
2013-04-03 15:21:00,56.4,31.7,28.85,WSW,248,0.0,11.6,39,0.00,,,0.00,WUHU216HW,2013-04-03 20:21:00,
2013-04-03 15:26:00,56.4,31.0,28.84,SSE,158,8.0,8.0,38,0.00,,,0.00,WUHU216HW,2013-04-03 20:26:00,
2013-04-03 15:31:00,56.6,31.8,28.84,SSW,203,8.2,8.7,39,0.00,,,0.00,WUHU216HW,2013-04-03 20:31:00,
2013-04-03 15:36:00,56.4,31.0,28.84,SSE,158,0.0,8.7,38,0.00,,,0.00,WUHU216HW,2013-04-03 20:36:00,
2013-04-03 15:41:00,56.8,32.0,28.84,SW,225,12.0,14.3,39,0.00,,,0.00,WUHU216HW,2013-04-03 20:41:00,
2013-04-03 15:46:00,56.8,31.3,28.84,SW,225,4.2,14.3,38,0.00,,,0.00,WUHU216HW,2013-04-03 20:46:00,
2013-04-03 15:51:00,57.0,31.5,28.84,SW,225,11.1,11.1,38,0.00,,,0.00,WUHU216HW,2013-04-03 20:51:00,
2013-04-03 15:56:00,57.0,31.5,28.83,SSW,203,6.9,11.1,38,0.00,,,0.00,WUHU216HW,2013-04-03 20:56:00,
2013-04-03 16:02:00,57.0,31.5,28.83,SSW,203,7.1,10.9,38,0.00,,,0.00,WUHU216HW,2013-04-03 21:02:00,
2013-04-03 16:07:00,57.0,31.5,28.83,South,180,8.9,10.9,38,0.00,,,0.00,WUHU216HW,2013-04-03 21:07:00,
2013-04-03 16:12:00,57.0,31.5,28.82,South,180,16.1,16.1,38,0.00,,,0.00,WUHU216HW,2013-04-03 21:12:00,
2013-04-03 16:17:00,57.0,31.5,28.83,SW,225,11.4,16.1,38,0.00,,,0.00,WUHU216HW,2013-04-03 21:17:00,
2013-04-03 16:22:00,56.6,31.1,28.83,SSW,203,5.5,16.1,38,0.00,,,0.00,WUHU216HW,2013-04-03 21:22:00,
2013-04-03 16:27:00,56.3,31.0,28.82,SSW,203,6.0,12.5,38,0.00,,,0.00,WUHU216HW,2013-04-03 21:27:00,
2013-04-03 16:32:00,56.4,31.0,28.82,SSW,203,6.4,10.2,38,0.00,,,0.00,WUHU216HW,2013-04-03 21:32:00,
2013-04-03 16:37:00,56.4,31.0,28.82,SW,225,13.8,13.8,38,0.00,,,0.00,WUHU216HW,2013-04-03 21:37:00,
2013-04-03 16:42:00,56.3,30.8,28.82,South,180,7.1,13.8,38,0.00,,,0.00,WUHU216HW,2013-04-03 21:42:00,
2013-04-03 16:47:00,56.1,30.7,28.81,SSW,203,8.2,13.4,38,0.00,,,0.00,WUHU216HW,2013-04-03 21:47:00,
2013-04-03 16:52:00,55.9,30.5,28.81,SSW,203,9.3,12.9,38,0.00,,,0.00,WUHU216HW,2013-04-03 21:52:00,
2013-04-03 16:57:00,55.7,30.3,28.81,South,180,6.7,12.5,38,0.00,,,0.00,WUHU216HW,2013-04-03 21:57:00,
2013-04-03 17:02:00,55.5,30.2,28.81,SSW,203,9.3,12.5,38,0.00,,,0.00,WUHU216HW,2013-04-03 22:02:00,
2013-04-03 17:07:00,55.5,30.2,28.81,SSW,203,8.9,14.3,38,0.00,,,0.00,WUHU216HW,2013-04-03 22:07:00,
2013-04-03 17:13:00,55.7,30.3,28.81,South,180,13.4,14.3,38,0.00,,,0.00,WUHU216HW,2013-04-03 22:13:00,
2013-04-03 17:18:00,55.7,30.3,28.81,SSW,203,7.6,13.8,38,0.00,,,0.00,WUHU216HW,2013-04-03 22:18:00,
2013-04-03 17:23:00,55.2,29.8,28.81,SSW,203,7.8,13.8,38,0.00,,,0.00,WUHU216HW,2013-04-03 22:23:00,
2013-04-03 17:28:00,55.0,29.7,28.81,SSW,203,11.1,12.9,38,0.00,,,0.00,WUHU216HW,2013-04-03 22:28:00,
2013-04-03 17:33:00,54.5,29.2,28.81,SSW,203,7.1,11.1,38,0.00,,,0.00,WUHU216HW,2013-04-03 22:33:00,
2013-04-03 17:38:00,54.1,29.6,28.80,SSW,203,7.3,9.6,39,0.00,,,0.00,WUHU216HW,2013-04-03 22:38:00,
2013-04-03 17:43:00,53.9,29.4,28.81,SSW,203,7.3,9.6,39,0.00,,,0.00,WUHU216HW,2013-04-03 22:43:00,
2013-04-03 17:48:00,54.1,29.6,28.81,SSW,203,13.1,13.1,39,0.00,,,0.00,WUHU216HW,2013-04-03 22:48:00,
2013-04-03 17:53:00,54.6,30.1,28.80,SSW,203,4.6,13.1,39,0.00,,,0.00,WUHU216HW,2013-04-03 22:53:00,
2013-04-03 17:58:00,55.2,30.5,28.80,SW,225,14.5,15.4,39,0.00,,,0.00,WUHU216HW,2013-04-03 22:58:00,
2013-04-03 18:03:00,55.2,30.5,28.81,SSW,203,10.5,15.4,39,0.00,,,0.00,WUHU216HW,2013-04-03 23:03:00,
2013-04-03 18:08:00,55.2,29.8,28.80,SSW,203,8.9,17.2,38,0.00,,,0.00,WUHU216HW,2013-04-03 23:08:00,
2013-04-03 18:14:00,55.0,29.7,28.80,SSW,203,6.9,17.2,38,0.00,,,0.00,WUHU216HW,2013-04-03 23:14:00,
2013-04-03 18:19:00,54.6,29.4,28.81,SSW,203,8.2,12.7,38,0.00,,,0.00,WUHU216HW,2013-04-03 23:19:00,
2013-04-03 18:24:00,54.3,29.1,28.80,SW,225,11.8,11.8,38,0.00,,,0.00,WUHU216HW,2013-04-03 23:24:00,
2013-04-03 18:29:00,53.9,29.4,28.80,SSW,203,7.8,11.8,39,0.00,,,0.00,WUHU216HW,2013-04-03 23:29:00,
2013-04-03 18:34:00,53.4,28.9,28.81,South,180,6.7,11.8,39,0.00,,,0.00,WUHU216HW,2013-04-03 23:34:00,
2013-04-03 18:39:00,53.2,28.8,28.80,SW,225,11.8,11.8,39,0.00,,,0.00,WUHU216HW,2013-04-03 23:39:00,
2013-04-03 18:44:00,52.8,28.5,28.80,SSW,203,8.7,11.8,39,0.00,,,0.00,WUHU216HW,2013-04-03 23:44:00,
2013-04-03 18:49:00,52.8,29.1,28.80,SSW,203,10.5,10.5,40,0.00,,,0.00,WUHU216HW,2013-04-03 23:49:00,
2013-04-03 18:55:00,52.8,29.1,28.81,SSW,203,7.3,10.5,40,0.00,,,0.00,WUHU216HW,2013-04-03 23:55:00,
2013-04-03 19:00:00,52.7,29.0,28.81,South,180,8.0,9.6,40,0.00,,,0.00,WUHU216HW,2013-04-04 00:00:00,
2013-04-03 19:05:00,52.5,28.8,28.81,SSW,203,13.4,13.4,40,0.00,,,0.00,WUHU216HW,2013-04-04 00:05:00,
2013-04-03 19:10:00,52.1,28.5,28.81,SSW,203,8.2,14.0,40,0.00,,,0.00,WUHU216HW,2013-04-04 00:10:00,
2013-04-03 19:15:00,51.8,28.2,28.81,South,180,6.0,14.0,40,0.00,,,0.00,WUHU216HW,2013-04-04 00:15:00,
2013-04-03 19:20:00,51.6,28.0,28.81,South,180,4.2,8.2,40,0.00,,,0.00,WUHU216HW,2013-04-04 00:20:00,
2013-04-03 19:25:00,50.9,27.9,28.81,SSW,203,3.8,13.8,41,0.00,,,0.00,WUHU216HW,2013-04-04 00:25:00,
2013-04-03 19:30:00,50.7,27.8,28.81,SSW,203,7.8,13.8,41,0.00,,,0.00,WUHU216HW,2013-04-04 00:30:00,
2013-04-03 19:35:00,50.1,27.3,28.81,SSW,203,4.0,7.8,41,0.00,,,0.00,WUHU216HW,2013-04-04 00:35:00,
2013-04-03 19:40:00,49.8,27.5,28.81,SSW,203,6.0,11.1,42,0.00,,,0.00,WUHU216HW,2013-04-04 00:40:00,
2013-04-03 19:45:00,49.2,27.0,28.81,SSW,203,5.3,11.1,42,0.00,,,0.00,WUHU216HW,2013-04-04 00:45:00,
2013-04-03 19:50:00,48.7,26.5,28.81,SSW,203,6.4,6.4,42,0.00,,,0.00,WUHU216HW,2013-04-04 00:50:00,
2013-04-03 19:56:00,48.3,26.2,28.81,SSW,203,6.0,7.1,42,0.00,,,0.00,WUHU216HW,2013-04-04 00:56:00,
2013-04-03 20:01:00,47.8,25.8,28.81,South,180,10.5,10.5,42,0.00,,,0.00,WUHU216HW,2013-04-04 01:01:00,
2013-04-03 20:06:00,47.3,25.7,28.81,South,180,8.5,10.5,43,0.00,,,0.00,WUHU216HW,2013-04-04 01:06:00,
2013-04-03 20:11:00,46.9,25.4,28.81,South,180,6.9,10.5,43,0.00,,,0.00,WUHU216HW,2013-04-04 01:11:00,
2013-04-03 20:17:00,46.7,25.8,28.81,South,180,8.5,8.5,44,0.00,,,0.00,WUHU216HW,2013-04-04 01:17:00,
2013-04-03 20:22:00,46.4,25.5,28.81,South,180,5.3,8.5,44,0.00,,,0.00,WUHU216HW,2013-04-04 01:22:00,
2013-04-03 20:27:00,46.0,25.1,28.81,South,180,6.4,8.5,44,0.00,,,0.00,WUHU216HW,2013-04-04 01:27:00,
2013-04-03 20:32:00,45.6,25.4,28.81,South,180,6.7,7.3,45,0.00,,,0.00,WUHU216HW,2013-04-04 01:32:00,
2013-04-03 20:37:00,45.5,25.2,28.81,South,180,6.2,7.1,45,0.00,,,0.00,WUHU216HW,2013-04-04 01:37:00,
2013-04-03 20:42:00,45.1,24.9,28.81,South,180,9.6,9.6,45,0.00,,,0.00,WUHU216HW,2013-04-04 01:42:00,
2013-04-03 20:47:00,44.9,25.3,28.81,South,180,7.8,9.6,46,0.00,,,0.00,WUHU216HW,2013-04-04 01:47:00,
2013-04-03 20:52:00,44.7,25.1,28.81,South,180,6.2,9.6,46,0.00,,,0.00,WUHU216HW,2013-04-04 01:52:00,
2013-04-03 20:57:00,44.6,24.9,28.81,South,180,8.7,8.7,46,0.00,,,0.00,WUHU216HW,2013-04-04 01:57:00,
2013-04-03 21:02:00,44.4,24.8,28.81,South,180,4.2,8.7,46,0.00,,,0.00,WUHU216HW,2013-04-04 02:02:00,
2013-04-03 21:07:00,44.4,24.8,28.81,South,180,8.5,8.7,46,0.00,,,0.00,WUHU216HW,2013-04-04 02:07:00,
2013-04-03 21:12:00,44.4,25.3,28.81,South,180,6.7,8.5,47,0.00,,,0.00,WUHU216HW,2013-04-04 02:12:00,
2013-04-03 21:18:00,44.4,25.3,28.81,South,180,8.7,8.7,47,0.00,,,0.00,WUHU216HW,2013-04-04 02:18:00,
2013-04-03 21:23:00,44.2,25.1,28.82,South,180,1.1,8.7,47,0.00,,,0.00,WUHU216HW,2013-04-04 02:23:00,
2013-04-03 21:28:00,44.2,25.1,28.82,South,180,6.0,8.7,47,0.00,,,0.00,WUHU216HW,2013-04-04 02:28:00,
2013-04-03 21:33:00,43.8,24.8,28.82,South,180,5.3,6.0,47,0.00,,,0.00,WUHU216HW,2013-04-04 02:33:00,
2013-04-03 21:38:00,43.5,24.5,28.82,South,180,0.8,7.8,47,0.00,,,0.00,WUHU216HW,2013-04-04 02:38:00,
2013-04-03 21:43:00,43.5,24.5,28.83,South,180,5.5,7.8,47,0.00,,,0.00,WUHU216HW,2013-04-04 02:43:00,
2013-04-03 21:48:00,42.9,24.9,28.83,South,180,1.5,6.2,48,0.00,,,0.00,WUHU216HW,2013-04-04 02:48:00,
2013-04-03 21:53:00,42.6,24.2,28.82,South,180,2.2,6.4,48,0.00,,,0.00,WUHU216HW,2013-04-04 02:53:00,
2013-04-03 21:59:00,42.4,24.0,28.82,South,180,0.0,6.4,48,0.00,,,0.00,WUHU216HW,2013-04-04 02:59:00,
2013-04-03 22:04:00,42.0,24.2,28.83,South,180,5.3,5.3,49,0.00,,,0.00,WUHU216HW,2013-04-04 03:04:00,
2013-04-03 22:09:00,42.0,24.2,28.83,South,180,0.0,5.3,49,0.00,,,0.00,WUHU216HW,2013-04-04 03:09:00,
2013-04-03 22:14:00,41.7,23.9,28.83,South,180,1.5,5.3,49,0.00,,,0.00,WUHU216HW,2013-04-04 03:14:00,
2013-04-03 22:19:00,41.5,23.7,28.83,South,180,0.0,1.5,49,0.00,,,0.00,WUHU216HW,2013-04-04 03:19:00,
2013-04-03 22:24:00,41.3,23.5,28.83,South,180,0.0,1.5,49,0.00,,,0.00,WUHU216HW,2013-04-04 03:24:00,
2013-04-03 22:29:00,41.0,23.1,28.82,South,180,0.0,0.0,49,0.00,,,0.00,WUHU216HW,2013-04-04 03:29:00,
2013-04-03 22:34:00,40.8,23.5,28.83,South,180,0.0,0.0,50,0.00,,,0.00,WUHU216HW,2013-04-04 03:34:00,
2013-04-03 22:39:00,40.6,23.3,28.83,South,180,4.2,4.2,50,0.00,,,0.00,WUHU216HW,2013-04-04 03:39:00,
2013-04-03 22:45:00,40.2,23.0,28.83,South,180,6.9,6.9,50,0.00,,,0.00,WUHU216HW,2013-04-04 03:45:00,
2013-04-03 22:50:00,40.1,23.3,28.82,South,180,0.0,6.9,51,0.00,,,0.00,WUHU216HW,2013-04-04 03:50:00,
2013-04-03 22:55:00,39.9,23.1,28.82,South,180,0.8,1.5,51,0.00,,,0.00,WUHU216HW,2013-04-04 03:55:00,
2013-04-03 23:00:00,39.7,23.0,28.82,South,180,6.2,6.2,51,0.00,,,0.00,WUHU216HW,2013-04-04 04:00:00,
2013-04-03 23:06:00,39.5,23.2,28.82,South,180,7.3,7.3,52,0.00,,,0.00,WUHU216HW,2013-04-04 04:06:00,
2013-04-03 23:11:00,39.5,23.2,28.82,South,180,4.9,7.3,52,0.00,,,0.00,WUHU216HW,2013-04-04 04:11:00,
2013-04-03 23:16:00,39.7,23.4,28.82,South,180,4.6,7.3,52,0.00,,,0.00,WUHU216HW,2013-04-04 04:16:00,
2013-04-03 23:21:00,39.7,23.4,28.81,South,180,3.5,6.9,52,0.00,,,0.00,WUHU216HW,2013-04-04 04:21:00,
2013-04-03 23:26:00,39.7,23.4,28.81,South,180,5.3,5.3,52,0.00,,,0.00,WUHU216HW,2013-04-04 04:26:00,
2013-04-03 23:31:00,39.5,23.2,28.81,South,180,9.6,9.6,52,0.00,,,0.00,WUHU216HW,2013-04-04 04:31:00,
2013-04-03 23:36:00,39.3,23.1,28.81,South,180,7.1,9.6,52,0.00,,,0.00,WUHU216HW,2013-04-04 04:36:00,
2013-04-03 23:41:00,39.3,23.1,28.81,South,180,7.3,9.6,52,0.00,,,0.00,WUHU216HW,2013-04-04 04:41:00,
2013-04-03 23:46:00,39.3,23.5,28.82,South,180,5.8,7.3,53,0.00,,,0.00,WUHU216HW,2013-04-04 04:46:00,
2013-04-03 23:52:00,39.3,23.5,28.81,SSW,203,5.8,6.4,53,0.00,,,0.00,WUHU216HW,2013-04-04 04:52:00,
2013-04-03 23:57:00,39.3,23.5,28.81,SSW,203,5.3,8.0,53,0.00,,,0.00,WUHU216HW,2013-04-04 04:57:00,